Theta_e
312 316 316 314 314 313 313 313 314 315 316 317 317 317 319 319 315 315 315 314 314 315 316 316 316 316 316 317 316 315 314 314 315 315 315 315 316 315 315 316 316 316 316 316 315 315 315 315 315 315 315 315 315 314 314 314 314 314 314 314 314 314 315 315 315 316 316 315 315 315 315 316 316 317 318 318 319 319 318 316 317 317 318 321 322 322
312 315 316 314 313 314 313 314 315 315 315 316 317 316 318 320 316 314 315 314 314 315 316 316 316 316 316 317 317 316 314 314 315 315 315 315 315 316 315 315 316 316 316 316 316 316 315 315 314 314 315 315 315 314 315 315 314 314 314 314 315 314 314 314 314 314 315 315 315 315 316 316 317 318 318 319 319 319 318 317 318 319 320 323 324 324
314 314 314 313 313 314 314 314 314 315 316 317 318 318 317 319 316 314 314 314 314 315 316 317 318 317 317 317 316 315 315 315 316 316 316 316 315 316 316 316 316 316 317 317 316 316 315 315 314 314 314 315 315 315 315 315 315 314 315 314 314 315 315 314 315 315 314 314 315 316 316 317 318 319 319 319 318 318 318 317 317 317 318 320 320 320
314 314 314 314 314 314 315 314 314 315 316 317 318 317 318 319 317 316 315 314 314 313 315 317 317 316 315 317 316 315 316 316 316 317 316 316 316 315 316 316 316 316 317 318 317 316 316 315 315 315 314 314 314 315 315 315 315 314 314 314 315 315 315 315 315 315 315 315 316 317 318 319 319 320 319 318 317 317 317 316 316 316 317 317 318 319
314 313 312 314 315 315 315 315 316 315 315 318 320 319 320 320 318 318 315 313 313 314 315 315 315 317 316 315 316 315 316 316 315 317 317 317 316 316 316 317 317 318 318 318 318 317 316 315 316 315 315 314 314 314 315 315 315 315 314 315 314 314 315 315 315 315 315 316 317 317 319 320 319 319 318 317 316 316 316 316 316 317 319 321 323 324
314 312 312 316 316 316 317 316 317 318 315 317 321 320 319 319 319 319 316 315 315 316 318 315 316 322 321 315 315 315 316 316 316 317 317 318 317 316 317 317 317 318 318 318 317 317 316 315 315 315 315 315 314 314 315 314 314 315 315 315 315 314 314 314 315 315 315 315 316 316 316 317 317 316 317 316 316 316 316 315 316 317 320 323 325 326
313 310 313 319 318 319 319 316 318 320 315 314 321 322 319 320 322 320 319 319 317 317 318 316 316 321 322 318 317 318 318 317 317 316 315 316 317 316 316 316 316 317 317 316 316 316 315 315 315 315 315 315 315 315 314 315 314 314 315 315 314 314 314 314 314 314 314 315 314 314 315 315 315 315 315 315 315 316 315 315 315 316 317 319 320 321
312 312 316 319 319 320 319 316 318 318 314 317 324 324 322 322 323 323 322 320 318 318 316 316 317 318 320 321 319 318 317 316 318 318 316 314 315 316 315 315 315 315 315 315 315 315 314 314 314 314 315 315 315 315 315 315 315 315 315 314 314 315 314 314 314 314 314 314 314 314 315 314 314 314 314 315 315 315 315 315 315 315 316 316 317 317
313 315 318 319 319 319 318 319 322 318 315 320 324 323 322 323 324 323 322 319 318 318 318 318 317 316 319 321 318 317 316 316 317 318 316 314 314 315 315 315 315 314 315 314 314 314 314 313 313 313 313 314 314 314 314 314 314 315 315 315 315 314 314 314 314 315 315 315 314 314 314 314 313 313 314 314 314 314 315 315 315 315 316 316 316 316
315 313 315 318 319 318 316 318 323 323 318 319 320 322 323 324 323 321 321 320 318 318 321 321 317 316 320 321 317 317 317 317 317 316 316 314 315 316 315 315 315 314 314 313 313 313 313 313 313 313 313 313 314 314 314 314 314 314 314 314 315 314 315 315 315 315 314 314 313 313 313 313 313 313 314 314 314 315 315 315 316 315 316 316 315 315
312 310 312 316 316 314 314 314 318 322 319 317 320 322 322 321 321 319 320 319 318 320 322 321 318 315 318 321 318 317 317 317 317 317 318 315 315 316 315 315 314 314 313 313 313 312 312 313 312 312 312 312 313 313 313 313 313 313 313 313 313 313 314 314 314 313 313 312 312 312 313 313 314 314 314 314 315 315 315 315 315 315 315 314 314 314
312 312 313 313 310 311 315 315 316 317 316 319 321 321 320 319 318 317 318 317 319 321 319 317 319 317 318 319 318 316 316 316 317 318 319 316 315 315 315 314 314 314 314 313 313 313 312 312 312 312 312 312 312 312 312 312 312 312 312 312 312 312 313 312 312 312 312 312 312 313 314 314 314 314 314 315 315 315 315 315 315 315 314 314 314 314
316 315 314 314 310 311 317 317 316 315 316 320 320 319 320 320 317 317 318 318 319 318 314 313 317 318 317 316 314 315 315 315 316 316 317 316 314 315 315 314 314 314 315 314 314 313 312 312 311 311 311 311 312 312 312 312 312 312 312 312 312 312 312 312 312 312 312 312 313 314 314 315 314 315 315 315 315 315 315 315 315 314 314 314 314 314
318 316 314 316 313 312 316 316 315 316 316 319 318 318 321 320 316 316 318 318 318 316 313 313 315 317 317 315 315 316 313 313 314 314 315 315 314 315 314 314 314 314 315 315 315 314 314 313 312 311 311 311 312 313 313 313 312 312 312 312 312 313 313 313 313 313 313 313 314 314 315 315 315 315 315 315 315 315 314 314 315 314 314 314 314 314
317 315 315 316 314 313 316 316 317 317 316 317 318 319 320 319 318 318 318 321 322 317 313 312 316 320 319 317 316 314 311 313 314 313 313 313 313 313 313 314 314 314 315 315 315 315 315 314 313 313 313 313 314 314 314 314 313 313 313 313 313 313 313 313 313 313 314 314 315 315 315 315 315 315 315 315 315 314 314 314 314 314 314 314 314 314
314 315 315 314 313 314 316 316 317 316 315 317 318 320 319 320 322 320 316 320 322 319 316 314 318 321 318 317 316 312 311 311 311 311 311 311 311 312 313 314 314 315 315 315 315 315 315 315 315 314 314 315 315 315 314 314 314 314 314 314 314 314 314 314 314 314 315 315 315 315 315 315 314 314 314 315 314 314 314 314 314 314 314 314 314 314
314 316 315 313 313 313 313 314 315 315 315 317 318 319 319 320 324 320 315 314 315 318 319 317 318 318 315 316 317 314 313 312 311 310 310 311 311 311 313 314 315 315 315 315 315 315 316 316 315 315 315 315 315 315 315 314 314 314 314 315 315 315 315 315 315 315 315 315 315 314 314 314 314 314 314 314 314 314 314 314 314 314 314 314 313 313
316 316 314 314 316 312 308 310 313 311 313 319 320 318 316 317 320 318 314 315 314 314 316 317 317 317 315 317 317 315 314 313 313 311 310 311 312 313 315 315 315 315 314 315 315 315 316 316 315 315 315 315 315 315 315 315 315 315 315 315 315 315 315 315 315 315 314 314 314 314 314 314 314 314 314 314 314 314 314 314 314 314 313 313 313 313
319 318 314 313 315 313 310 312 314 311 311 315 316 315 316 317 318 315 313 316 318 314 315 318 317 315 316 316 316 316 315 315 314 312 311 313 313 314 316 316 315 315 314 314 315 315 316 316 315 316 315 315 316 315 315 315 315 315 315 315 315 314 315 314 314 314 314 314 314 314 314 314 314 314 314 314 314 314 314 313 313 313 312 312 312 312
319 321 318 312 313 314 313 314 315 314 313 313 313 313 316 317 317 317 315 316 319 316 315 317 317 320 322 318 317 318 316 315 314 313 312 311 313 316 316 316 315 314 314 314 314 315 315 316 316 316 316 315 315 315 315 314 314 314 314 314 314 314 314 314 314 314 314 314 314 314 314 314 314 314 314 314 313 313 313 312 312 312 312 311 311 311
316 320 321 314 312 315 315 314 315 315 313 313 314 314 314 314 314 317 317 316 317 317 316 315 316 325 326 317 315 316 316 317 315 315 313 311 313 317 316 315 314 314 314 314 314 314 315 315 315 315 315 314 314 314 314 314 314 314 314 314 314 314 314 314 314 314 314 314 314 314 314 313 314 313 313 313 313 312 312 312 311 311 311 310 310 309
316 316 318 314 313 315 317 316 314 317 316 314 314 314 314 314 315 316 317 316 315 316 318 315 316 326 325 316 316 316 316 318 314 313 313 311 314 317 315 315 314 313 314 313 314 314 314 314 314 314 314 313 314 314 313 314 314 314 314 314 314 314 314 314 314 314 313 313 313 313 313 313 313 313 312 312 312 311 311 311 310 309 308 308 307 306
317 319 317 315 315 315 316 314 310 314 319 318 315 316 315 314 314 315 317 319 317 314 315 314 316 326 325 316 316 315 312 312 312 312 312 313 316 317 315 315 314 313 314 313 314 314 313 314 313 313 313 313 314 314 314 314 314 314 314 313 314 314 313 313 313 313 313 313 313 313 313 313 312 312 311 311 311 310 309 308 307 306 305 304 304 303
316 321 319 316 315 314 314 314 311 313 317 318 317 317 316 315 314 315 316 319 318 316 316 313 314 322 323 314 311 310 308 309 311 313 313 314 316 316 315 314 313 313 313 313 314 313 313 313 313 313 314 314 314 314 314 314 313 313 313 313 313 313 313 313 313 313 313 313 313 313 312 312 311 311 310 309 308 308 306 305 304 303 303 303 303 302
314 319 320 318 317 317 316 316 315 315 315 316 317 315 315 318 318 316 315 315 317 320 321 317 315 320 321 315 311 310 310 309 309 311 314 315 316 315 315 314 313 313 313 313 313 313 313 313 313 314 314 314 314 313 313 313 313 313 313 313 313 313 313 313 313 313 313 312 312 312 311 311 310 309 308 307 306 305 304 303 303 303 303 302 302 301
316 318 318 318 317 316 316 315 316 316 315 315 317 316 316 318 319 316 315 315 317 321 320 317 317 317 316 314 313 313 313 311 309 310 313 315 316 315 314 314 313 313 313 313 313 313 313 313 313 314 314 313 313 313 313 313 312 313 312 312 312 312 312 313 312 312 312 311 311 310 310 309 308 307 306 305 304 304 303 303 303 303 302 301 300 299
321 317 313 315 315 314 314 315 317 319 317 315 316 317 317 318 318 317 316 316 317 319 319 318 317 316 314 314 314 314 314 313 310 308 310 314 316 315 314 314 314 313 313 313 313 313 313 313 314 314 313 313 313 313 313 312 312 312 312 312 312 312 312 312 312 311 311 310 310 309 308 307 306 305 304 303 303 303 303 303 302 301 300 299 298 298
323 317 313 316 314 314 314 315 319 319 317 316 316 316 316 317 317 318 316 316 316 316 316 317 317 316 314 314 315 316 316 314 310 307 309 313 315 315 314 314 313 313 313 312 313 313 313 313 314 313 313 313 312 312 312 312 312 312 312 312 312 312 311 311 311 310 310 309 309 308 306 305 304 303 303 303 303 302 301 300 299 298 298 298 297 297
318 315 316 317 314 315 316 316 319 319 316 316 316 315 316 316 317 317 316 315 316 316 315 315 317 317 314 314 316 317 315 312 310 309 309 311 314 315 314 313 313 313 312 312 313 313 313 313 313 313 313 312 312 312 312 312 312 312 311 311 311 311 311 310 310 310 309 308 307 306 304 303 303 303 302 302 301 300 299 298 297 298 297 297 297 297
315 315 316 315 314 316 316 316 320 320 318 317 316 316 316 316 316 316 315 315 315 315 315 314 316 316 314 315 316 315 313 312 311 310 309 310 312 315 314 313 313 312 312 312 313 313 313 313 313 312 312 312 312 311 311 312 311 311 311 311 310 310 310 309 309 308 307 306 305 304 303 302 302 302 301 300 299 298 298 297 297 297 297 297 297 297
314 317 316 314 314 315 314 315 318 320 320 319 318 318 317 317 317 315 315 315 314 314 314 314 315 315 314 315 315 314 314 313 311 310 310 310 312 314 314 313 313 312 312 312 312 313 313 312 312 312 312 311 311 311 311 311 311 311 310 310 310 310 309 308 307 306 305 304 303 302 302 301 301 301 299 298 298 297 297 297 297 297 297 297 296 296
313 316 315 314 314 314 314 314 316 318 319 318 318 321 321 319 318 316 315 315 314 314 315 315 315 314 313 313 314 314 312 310 310 310 310 310 311 313 313 313 313 312 312 312 312 313 312 312 312 312 311 311 311 311 311 310 310 310 309 309 309 308 307 306 305 304 303 302 302 301 301 301 300 299 298 298 297 297 297 297 297 297 296 296 296 296
313 315 316 314 314 314 314 315 316 318 318 316 316 318 320 320 318 316 315 315 314 314 315 315 314 313 313 313 314 315 312 310 310 311 311 311 311 312 312 312 313 312 312 312 312 312 312 312 312 312 311 311 311 311 310 310 310 309 309 309 308 307 305 304 303 302 301 301 301 301 300 299 298 298 297 297 297 297 297 297 296 296 296 296 295 295
313 314 316 315 313 314 315 316 317 316 315 315 313 314 317 318 317 317 316 315 315 314 313 313 313 313 313 313 314 316 314 312 311 311 312 312 311 311 311 312 312 312 312 312 312 312 312 312 312 311 311 310 311 310 310 309 309 308 308 307 306 304 303 302 301 301 301 300 300 300 299 298 297 297 297 297 297 297 296 296 296 296 295 295 295 295
314 314 315 314 314 315 316 316 316 314 314 313 313 314 314 314 316 318 317 315 315 314 314 314 313 313 313 312 313 314 314 313 313 312 312 312 311 312 311 311 311 311 312 312 312 312 312 312 312 311 310 310 310 310 309 308 308 307 305 304 304 302 301 300 300 300 300 300 299 298 298 298 297 297 297 297 297 296 296 295 295 295 295 294 294 294
314 314 314 316 317 317 315 315 315 316 315 314 314 313 313 313 315 316 316 315 314 314 314 314 313 312 312 311 312 313 314 313 312 312 312 312 312 312 312 311 311 311 311 312 312 312 312 312 312 311 310 310 310 309 309 307 306 305 304 303 302 300 299 299 299 299 299 299 298 298 298 298 297 297 297 296 296 295 295 295 294 294 294 294 294 293
312 312 313 315 316 316 315 314 314 315 316 315 315 313 312 312 314 314 315 314 313 313 314 314 313 313 312 312 312 313 313 312 312 312 312 312 312 312 312 312 311 311 311 311 311 312 311 311 311 310 310 310 309 308 308 306 304 303 303 302 300 299 298 298 299 299 299 298 298 298 298 297 297 297 296 295 295 295 294 294 294 294 294 293 293 293
314 313 313 314 315 315 316 314 314 314 314 313 313 313 311 311 312 313 314 314 313 312 312 313 314 313 312 311 312 312 312 313 314 313 312 312 312 312 312 312 312 311 311 311 311 311 311 310 310 310 309 309 309 307 306 305 303 302 302 301 298 297 298 298 298 298 298 298 298 297 297 297 296 296 295 295 294 294 294 294 293 293 293 293 292 292
315 315 315 314 314 316 315 314 314 314 313 313 316 315 312 311 311 312 314 314 313 311 311 312 313 312 311 311 310 311 313 315 314 312 311 312 312 312 312 311 311 311 311 311 311 311 311 310 309 309 309 308 308 307 305 303 302 301 300 299 298 297 297 298 298 298 297 297 297 297 296 296 295 295 294 294 294 293 293 293 292 292 292 292 291 291
313 314 315 314 314 315 314 313 313 313 312 318 322 317 312 311 311 313 315 314 312 310 311 311 311 311 311 311 310 311 314 315 313 311 311 312 312 311 312 311 310 311 311 310 311 310 310 310 309 309 308 308 307 306 304 302 301 300 299 298 297 297 297 297 297 297 297 296 296 296 295 295 294 294 294 293 293 293 292 292 291 291 291 291 291 291
312 312 314 314 314 315 315 314 313 313 314 320 320 313 310 311 313 314 314 313 311 311 312 311 311 311 311 311 310 311 312 312 311 311 311 311 311 311 311 310 310 310 310 310 310 310 309 309 308 308 308 307 306 305 303 301 300 298 298 297 297 297 296 296 296 296 296 296 295 295 294 294 294 294 293 293 292 291 291 291 291 291 291 291 291 290
312 312 313 313 313 313 313 313 313 313 314 317 314 309 309 313 314 313 313 312 312 312 312 312 311 311 311 311 311 312 311 310 311 310 310 310 311 311 311 310 310 309 309 309 309 309 308 308 307 307 306 305 304 302 301 300 298 297 297 296 296 296 296 296 296 295 295 295 294 294 294 294 293 293 292 292 291 291 291 290 291 291 290 290 290 290
312 312 312 312 312 313 313 313 314 314 313 312 312 311 312 313 314 313 312 311 312 312 312 312 312 311 311 311 311 312 311 310 310 310 310 310 310 310 310 310 309 309 308 308 308 307 308 307 307 306 305 303 301 299 298 298 297 296 296 296 296 295 295 295 295 295 295 294 294 294 294 293 293 292 292 291 291 290 290 290 290 290 290 290 290 290
312 313 314 313 312 312 312 313 314 313 311 310 312 314 313 312 312 312 311 311 312 312 312 312 312 311 312 311 311 311 311 310 310 310 310 309 309 309 309 309 308 308 307 307 307 306 306 306 306 304 303 301 299 298 297 296 296 296 295 295 295 295 295 295 295 294 294 294 294 294 293 292 292 291 291 290 290 290 290 290 290 290 290 290 290 290
312 311 312 313 312 313 314 315 314 311 309 310 312 312 311 311 311 312 312 312 312 312 312 312 312 312 312 311 311 311 310 311 311 310 309 309 308 308 308 308 307 307 307 306 306 305 305 305 305 303 301 299 297 297 296 295 295 295 295 295 295 295 295 295 294 294 294 294 294 293 292 291 291 291 290 290 290 290 290 290 290 290 290 289 289 289
313 310 310 313 314 313 313 313 312 310 308 310 311 310 310 311 311 311 311 312 311 311 311 311 311 312 312 312 311 311 311 311 311 310 309 308 307 307 307 307 306 306 306 305 305 304 304 303 302 302 300 298 296 295 295 295 294 295 295 295 295 295 294 294 294 294 294 293 292 292 291 291 290 290 290 290 290 290 290 290 290 290 289 289 289 288
312 309 310 314 315 313 312 312 312 310 309 310 310 309 310 310 310 310 311 311 311 311 310 310 311 311 311 311 311 311 311 311 310 309 307 306 306 307 307 307 306 306 305 304 304 303 302 301 301 300 299 298 296 295 294 295 295 295 295 295 295 294 294 294 294 293 293 292 291 291 290 290 290 290 290 290 290 290 290 289 289 289 289 288 288 288
311 309 312 315 314 312 312 312 309 308 308 309 310 310 310 310 310 310 310 310 310 310 310 310 310 310 310 310 310 309 309 309 308 308 307 306 306 306 306 306 306 305 304 303 302 302 301 299 299 298 297 297 296 295 294 295 295 295 295 295 294 294 294 293 293 292 291 291 291 290 290 290 290 290 290 290 290 289 289 289 289 288 288 287 287 287
309 310 313 315 313 312 312 310 307 308 309 309 309 310 310 310 310 310 311 311 311 310 309 309 309 309 309 309 309 308 308 307 307 307 307 307 306 306 306 306 305 304 303 302 301 301 299 298 297 297 296 296 296 295 295 294 294 295 294 294 294 294 293 293 292 291 291 291 290 290 290 290 290 290 289 289 289 289 289 288 288 288 287 287 287 287
308 311 313 314 313 313 313 311 309 311 313 310 308 309 310 310 310 310 310 310 310 309 309 309 309 309 308 308 308 308 308 307 307 307 307 306 306 306 306 306 305 304 303 302 300 299 298 296 296 296 296 295 295 295 295 294 294 294 294 294 293 293 292 292 291 291 291 290 290 290 289 289 289 289 289 289 289 289 288 288 288 287 287 287 287 286
308 310 312 313 313 311 310 309 309 311 312 308 307 308 308 308 309 309 309 309 309 308 309 309 309 309 308 308 308 308 308 307 307 307 307 306 306 306 306 305 305 305 303 302 300 299 297 296 295 295 295 295 295 295 295 294 294 294 294 293 293 293 292 292 291 290 290 290 289 289 289 289 289 289 289 288 288 288 288 288 288 287 287 287 286 286
Wind_Speed
13 5 4 5 5 7 7 8 8 5 5 7 7 5 3 3 2 3 2 1 0 2 6 8 7 7 8 8 9 16 18 15 15 15 15 15 15 16 16 16 17 17 17 15 16 18 19 20 20 20 21 21 22 22 22 22 22 21 21 22 21 20 20 20 20 20 20 20 19 19 19 19 19 19 19 18 18 18 18 18 18 18 19 19 19 18
12 5 5 7 7 7 8 9 7 3 3 5 8 6 4 4 2 2 2 1 2 1 5 7 8 9 8 7 8 11 14 13 17 17 17 18 18 18 18 18 17 16 16 16 17 19 20 20 21 21 22 23 24 24 24 24 23 23 22 23 22 21 21 22 22 22 21 21 20 20 19 18 17 17 18 18 18 18 17 17 17 18 18 19 20 21
7 5 6 10 10 8 8 10 7 2 3 1 4 5 4 3 3 2 3 1 2 1 1 1 3 7 7 6 9 11 12 14 19 20 19 20 20 21 20 19 19 17 17 18 19 20 20 20 20 21 23 24 25 25 25 25 24 24 23 24 24 24 23 23 23 23 22 22 21 21 20 18 17 17 17 17 17 17 17 17 17 17 17 18 20 22
5 4 6 9 10 5 5 8 6 2 1 1 2 4 4 4 4 1 1 1 2 1 1 3 3 5 6 6 8 14 18 17 19 20 19 20 21 22 21 20 20 20 20 20 20 20 21 21 20 21 23 25 26 26 26 26 26 26 25 25 25 25 25 24 24 24 23 22 22 21 20 19 19 19 20 20 18 17 17 16 15 15 16 17 19 20
5 2 3 4 7 5 2 5 5 3 2 3 2 2 3 5 4 2 3 2 2 1 1 2 4 5 6 8 9 12 18 18 18 19 18 20 21 20 20 20 19 20 21 20 19 20 21 21 20 20 21 24 26 28 28 28 28 27 27 26 26 26 26 25 24 24 23 23 23 22 21 22 23 22 22 21 20 18 17 15 14 14 16 17 17 18
5 1 1 2 5 7 4 3 5 5 3 3 2 1 2 6 7 6 6 4 3 1 2 2 1 6 5 8 10 7 9 12 14 15 17 20 21 21 22 22 20 21 21 20 19 19 19 20 20 19 21 22 24 26 27 28 28 28 28 28 27 27 26 26 25 24 24 25 25 24 24 24 24 23 22 21 21 19 15 14 14 15 17 18 18 18
2 1 1 4 6 6 5 4 4 6 3 3 3 1 2 8 9 8 7 4 3 2 2 2 3 5 4 4 7 5 6 7 8 9 14 18 19 22 25 25 24 24 23 23 23 22 21 21 22 22 22 22 23 24 25 26 27 27 28 27 27 27 27 26 26 25 25 25 25 25 25 25 24 23 22 21 20 17 14 14 15 16 17 19 20 20
2 2 1 3 6 5 5 3 4 7 4 3 3 3 5 9 8 7 6 3 2 2 2 2 2 2 4 5 4 5 5 5 6 7 11 16 19 21 21 22 23 24 25 26 26 25 24 24 24 24 24 24 25 25 26 26 26 27 27 27 27 27 27 26 26 25 24 24 25 25 24 24 23 23 22 20 18 15 14 15 16 17 18 18 19 18
2 3 2 4 5 3 4 1 2 7 4 2 2 3 2 6 6 7 5 2 2 3 1 3 1 0 4 6 2 3 3 5 7 8 10 14 18 17 16 16 18 20 22 23 24 24 24 25 25 25 26 27 28 28 29 28 28 28 28 28 27 27 27 26 25 25 25 24 24 24 23 23 23 22 20 18 17 16 16 17 17 17 17 17 17 17
2 2 1 3 5 3 3 2 3 3 3 4 3 3 5 4 4 4 4 3 3 1 3 5 5 2 4 5 3 2 3 6 8 7 8 13 16 14 14 14 15 16 17 18 20 21 22 24 24 25 27 28 29 30 31 31 31 31 30 29 28 27 26 26 25 25 25 24 23 23 22 21 20 18 17 17 17 17 16 16 15 15 15 16 16 16
1 2 3 2 3 2 4 3 5 2 6 7 4 5 6 5 5 3 1 4 3 2 3 4 5 3 3 5 5 4 4 4 5 3 5 10 13 12 11 11 11 12 13 14 16 18 21 22 22 22 24 26 27 28 29 30 31 31 31 30 28 27 26 25 25 24 24 22 21 20 18 17 16 15 16 16 15 14 13 13 12 12 12 13 14 14
2 3 2 2 2 2 4 3 6 4 5 5 3 5 5 4 4 4 3 2 1 3 3 3 2 1 3 5 3 3 3 2 3 4 6 8 10 11 9 8 9 10 10 11 13 16 18 19 19 19 21 22 22 23 24 25 26 27 28 28 26 26 26 25 23 22 21 19 17 16 14 14 15 15 14 13 11 10 9 9 9 8 9 9 10 10
3 2 1 2 1 3 3 3 4 4 2 0 3 7 5 1 1 1 1 1 2 3 3 2 3 1 5 6 6 6 5 5 3 4 9 12 12 9 8 8 8 9 9 9 11 13 14 15 16 17 18 19 19 19 19 19 20 21 23 24 24 23 22 20 19 18 17 16 15 14 14 14 13 12 11 9 7 6 5 5 5 5 5 6 7 8
2 2 1 3 1 5 4 4 3 1 2 3 5 6 5 4 2 2 3 2 3 3 4 4 1 2 4 5 9 11 8 7 7 8 12 14 12 9 8 8 8 8 9 9 10 11 11 12 13 15 16 16 16 15 14 14 16 17 19 19 18 17 16 15 15 14 14 15 14 13 13 12 11 10 8 6 5 4 4 3 3 4 4 6 7 8
5 1 2 3 1 5 5 2 3 5 4 5 4 5 4 4 4 4 4 3 3 1 3 3 1 3 3 3 6 5 2 7 10 11 12 12 10 9 8 8 7 8 9 9 10 10 11 11 12 13 14 14 13 13 13 14 14 15 16 15 15 15 15 15 14 14 14 14 14 13 12 11 10 9 8 6 5 4 3 2 3 4 5 6 7 8
7 3 1 1 1 2 4 1 1 4 4 3 2 4 3 4 4 3 2 3 4 2 1 2 2 4 4 3 4 4 6 9 10 10 11 10 9 9 9 9 8 8 9 10 10 11 11 12 12 13 14 14 14 14 15 15 16 16 17 18 18 18 17 17 16 15 15 15 14 13 12 11 10 9 7 6 4 3 3 3 4 4 5 6 6 7
6 2 3 2 3 2 2 1 2 2 2 1 2 3 4 3 6 5 1 0 3 1 2 3 3 5 3 4 4 6 5 5 7 7 9 10 10 10 11 11 10 10 10 10 11 12 13 13 14 15 15 16 16 16 17 17 18 18 18 19 19 19 18 17 16 16 15 15 14 13 12 10 9 8 6 5 4 4 4 4 4 4 4 5 6 7
5 2 3 1 1 2 2 2 3 3 2 3 3 4 2 1 3 3 1 1 2 2 2 4 5 4 2 3 1 5 5 5 6 7 8 10 11 13 14 13 12 12 12 12 12 13 14 14 15 16 16 17 17 18 18 19 19 19 19 19 18 18 18 17 17 16 15 14 13 12 11 10 8 7 6 5 5 4 4 3 3 3 3 4 5 6
5 4 2 2 1 1 2 2 2 2 3 3 2 1 2 1 1 2 3 2 2 2 3 3 6 5 4 4 2 4 8 8 7 8 8 10 14 15 15 15 14 15 15 14 14 14 15 16 16 17 17 18 19 19 19 19 19 19 19 19 18 18 18 17 17 16 15 13 12 12 11 9 8 7 6 5 5 4 3 2 1 1 2 3 4 5
4 4 1 2 1 1 2 0 4 3 1 1 2 2 2 2 2 3 3 3 3 3 3 3 3 4 5 6 6 8 10 9 9 8 8 12 17 19 18 18 17 17 17 16 16 17 17 17 18 18 19 20 20 20 20 20 20 19 19 19 18 18 17 16 16 15 14 13 12 11 10 9 8 7 6 5 4 3 2 1 1 1 2 3 4 5
2 3 3 0 2 1 1 2 5 6 4 2 1 2 2 1 2 1 2 2 3 3 3 3 3 5 5 5 7 8 7 7 10 9 8 14 19 20 20 20 19 19 19 19 19 19 19 20 20 20 21 21 21 21 21 21 20 19 19 18 18 17 16 16 15 14 14 13 12 11 10 9 8 7 6 5 5 4 3 2 2 2 2 3 4 5
1 2 4 3 1 2 1 2 0 3 5 5 3 5 5 4 3 1 3 3 2 2 3 3 3 6 5 2 2 3 3 1 6 11 11 15 20 20 21 21 20 20 21 21 21 21 21 22 22 22 23 22 22 22 21 20 19 19 18 18 17 17 16 15 15 14 13 13 12 11 10 9 8 8 7 6 6 5 4 3 2 2 2 3 4 5
3 4 5 3 2 2 0 1 2 1 2 2 2 3 4 4 4 4 4 4 2 1 1 2 2 6 5 2 4 3 4 4 4 10 13 16 20 21 21 21 21 21 22 23 23 23 23 24 24 24 24 23 22 22 21 20 19 19 18 17 17 16 16 15 15 15 14 13 12 11 10 10 9 9 8 7 6 5 4 4 3 3 4 4 5 6
4 4 4 3 2 2 2 1 1 1 1 1 3 4 4 4 5 5 4 3 3 2 2 2 3 6 5 3 4 4 1 2 3 8 13 16 18 19 21 21 22 23 24 24 25 25 25 25 25 25 24 23 22 22 21 20 19 19 18 17 17 16 16 16 15 14 14 13 12 12 12 11 10 10 9 8 7 6 5 5 4 4 4 4 5 6
5 3 4 4 2 2 2 1 1 2 3 3 3 3 3 1 3 3 1 1 1 4 6 5 5 7 5 4 3 3 3 2 3 6 11 14 17 19 21 22 24 25 26 26 26 27 27 26 26 25 24 23 23 22 21 20 19 18 18 17 17 16 16 16 15 14 14 13 13 13 13 12 11 11 9 8 7 6 5 4 3 3 3 4 5 7
7 4 5 5 4 5 5 5 4 3 2 1 1 2 4 4 5 4 2 2 3 5 7 5 5 6 4 3 3 4 3 4 6 8 10 13 17 19 21 24 26 27 28 28 28 28 27 27 26 25 25 24 23 22 21 20 19 19 18 18 17 16 16 16 15 15 15 14 14 14 13 13 12 11 10 8 7 6 5 3 1 2 4 5 7 8
4 3 8 8 8 9 8 5 4 6 5 4 6 7 8 9 9 6 3 4 5 5 4 5 6 8 7 4 4 6 6 6 6 10 12 13 17 20 23 25 27 28 28 29 29 29 28 28 27 26 26 25 23 22 21 20 20 19 19 18 18 17 17 16 16 16 15 15 15 14 14 13 12 11 9 8 6 4 2 1 2 4 5 7 8 9
4 3 8 10 12 11 9 7 6 9 8 10 12 13 12 11 11 8 7 9 8 5 7 8 9 12 13 8 7 7 7 6 6 12 17 17 18 20 23 25 26 26 27 28 29 30 30 30 29 28 27 26 24 23 22 21 21 20 20 19 19 18 18 17 17 17 16 16 15 15 14 13 12 10 8 6 4 2 1 2 4 5 6 8 9 10
3 6 8 9 12 10 7 6 5 8 9 10 12 14 14 13 12 12 13 14 10 7 9 13 14 15 15 9 8 9 9 10 12 16 19 18 18 20 23 25 26 26 28 29 31 32 33 32 31 30 29 27 25 24 24 23 22 22 21 20 20 20 19 18 18 17 17 16 16 15 14 13 11 8 6 4 2 1 2 3 5 6 7 8 10 11
2 5 7 10 11 10 8 5 3 5 8 9 11 13 13 13 14 14 15 17 15 13 14 16 15 15 12 7 7 10 13 15 15 15 16 18 21 23 24 27 27 28 30 32 34 34 34 33 32 31 29 28 27 26 25 25 24 23 23 23 22 21 20 19 19 18 18 17 16 15 13 11 9 7 4 2 1 1 3 4 5 7 8 9 11 12
1 4 6 8 7 10 10 8 6 5 5 7 9 10 10 11 12 14 15 15 14 14 15 16 13 12 12 8 6 9 11 12 12 15 18 20 23 24 25 27 29 30 33 34 35 35 35 34 33 32 31 29 28 27 26 27 26 26 25 24 23 22 21 21 20 19 18 17 16 14 12 10 7 5 3 1 1 2 4 5 6 8 9 10 12 13
3 3 4 7 5 8 10 13 12 7 2 4 6 6 9 11 11 13 14 14 13 12 13 13 11 12 12 9 7 8 10 13 14 17 19 19 21 24 25 28 31 33 35 36 36 37 37 37 36 34 32 31 30 30 29 29 28 27 26 25 24 23 22 21 20 19 18 16 15 13 10 8 6 4 2 1 2 3 5 7 8 9 11 12 13 14
5 5 4 7 6 7 9 12 10 3 2 5 8 9 12 12 12 11 11 12 13 12 10 10 12 13 11 8 9 8 8 11 15 19 19 18 22 25 27 29 31 34 36 37 38 40 40 39 38 35 34 33 32 32 31 30 29 28 27 26 25 24 23 22 21 19 17 15 13 11 9 6 5 3 1 2 3 5 7 8 10 11 12 14 15 17
6 6 4 6 5 6 5 7 5 3 5 11 12 13 14 13 12 10 10 13 13 12 11 11 13 14 10 8 10 9 9 14 19 22 22 22 23 24 26 28 29 32 34 36 38 40 40 40 38 36 35 34 34 33 31 30 29 28 27 26 25 24 23 22 21 18 16 14 12 10 8 6 4 2 2 3 5 6 8 9 11 13 14 16 17 18
7 5 4 4 3 2 4 7 4 8 13 13 10 9 11 12 12 12 14 17 17 15 14 16 16 13 10 11 14 16 18 22 24 25 25 24 23 23 24 27 28 30 34 36 38 39 40 41 40 38 37 36 35 34 33 31 30 29 28 27 25 24 23 22 20 18 15 13 11 9 7 5 3 2 3 4 6 8 9 11 13 14 15 17 19 21
8 6 4 3 3 2 3 5 7 8 8 6 6 7 9 10 11 12 15 16 16 14 12 13 16 15 16 19 19 17 19 20 20 24 26 25 24 25 26 27 27 29 31 34 37 39 41 42 42 41 39 38 36 35 33 32 31 30 29 27 25 24 23 21 19 17 15 12 10 8 6 5 3 3 4 5 7 9 10 12 13 15 17 19 21 23
8 8 4 4 4 4 3 5 4 5 6 4 7 9 12 12 10 8 10 13 12 11 12 13 16 18 19 20 17 12 12 11 11 17 25 26 26 27 28 27 27 28 29 31 35 38 39 41 42 41 40 39 37 35 33 32 32 30 29 27 26 24 23 21 18 16 14 12 10 8 6 4 3 4 5 6 8 10 11 13 15 17 19 21 23 25
4 6 6 6 4 4 5 3 1 3 8 11 9 7 11 16 12 7 5 10 10 15 20 18 15 17 15 12 9 8 9 7 5 12 24 27 27 29 29 29 29 28 29 32 34 36 38 39 40 39 39 38 36 34 33 33 32 30 29 27 26 24 22 20 17 16 13 11 9 7 5 4 4 4 6 7 9 11 13 15 17 19 21 24 26 28
3 2 5 6 4 5 6 4 4 6 10 11 6 4 11 20 14 9 4 12 14 16 21 16 12 16 16 11 11 10 6 4 5 15 28 30 28 31 31 30 30 27 27 30 32 34 36 38 38 38 38 38 36 35 34 33 32 31 29 27 26 23 21 19 16 14 12 10 8 6 4 4 4 5 7 8 10 12 14 16 18 20 22 24 27 29
2 2 3 5 5 5 6 5 5 5 8 7 7 8 16 24 18 10 5 14 10 10 18 19 17 19 19 16 15 11 7 9 12 19 26 24 22 28 31 31 30 28 27 29 30 32 34 36 37 38 38 38 37 36 36 35 33 31 29 27 26 22 20 18 15 13 11 8 7 5 4 3 4 6 8 9 11 13 15 17 19 21 23 25 27 29
2 1 2 6 7 6 7 6 4 4 7 6 7 13 23 24 14 9 10 8 4 13 18 24 25 26 25 21 19 15 18 23 22 19 16 11 12 19 24 27 27 25 26 28 29 31 33 34 36 38 39 38 38 37 37 36 34 31 29 27 24 21 19 16 14 12 10 7 6 4 3 4 6 8 9 10 12 13 16 18 20 23 25 26 28 29
5 3 3 5 6 5 5 4 3 6 8 6 7 15 23 18 6 9 7 1 3 9 12 18 23 27 27 24 24 26 27 26 23 19 14 11 12 15 19 22 24 24 25 27 28 31 33 34 36 39 40 39 39 38 37 36 33 31 29 26 23 20 18 15 13 11 8 7 5 4 4 5 7 8 9 11 13 14 16 18 21 23 25 27 28 30
6 5 4 5 5 4 4 5 5 8 6 13 14 7 9 7 4 8 8 4 5 7 7 12 17 19 20 22 26 28 25 20 19 19 17 16 15 16 18 21 23 24 26 27 29 31 33 35 38 41 41 41 40 38 36 34 32 29 27 24 21 19 16 14 12 10 8 6 4 4 5 7 8 9 10 12 13 15 17 19 21 23 25 27 29 31
6 6 5 5 5 5 5 7 7 4 7 20 17 7 11 12 5 6 10 8 7 7 7 8 9 10 13 17 19 21 22 21 20 20 19 19 18 19 20 21 22 24 26 27 30 32 34 36 40 42 42 40 39 37 34 32 29 27 25 23 20 18 15 13 11 9 7 5 4 5 6 7 8 9 10 12 13 16 18 20 22 23 25 27 30 32
9 9 7 5 6 6 6 7 7 6 11 16 9 6 19 24 12 5 9 8 6 7 5 3 3 4 6 8 10 13 16 19 20 21 21 20 20 20 21 21 22 23 25 27 29 32 35 37 40 41 41 39 37 35 33 30 27 25 23 21 19 17 14 12 10 8 6 5 5 6 6 6 7 9 10 12 14 17 19 21 22 24 26 28 31 33
5 7 7 5 4 4 6 9 8 6 9 11 5 3 14 23 19 11 9 7 6 5 2 2 4 6 7 9 11 14 17 19 21 22 22 21 20 20 20 21 21 23 25 28 31 33 35 37 39 40 39 38 36 34 31 29 26 24 22 20 18 16 13 11 9 8 7 7 6 6 6 6 7 9 11 13 15 17 19 21 23 25 27 29 31 33
2 5 6 4 4 5 8 11 9 7 9 11 9 5 8 14 18 16 13 9 8 8 8 10 12 14 14 15 16 18 20 21 21 21 20 20 19 19 20 22 23 25 28 30 31 33 35 37 39 39 38 37 35 33 30 28 26 24 21 19 17 14 13 11 10 9 8 7 6 6 6 7 8 10 11 13 15 17 19 21 23 25 27 29 31 33
3 7 6 5 6 7 7 6 5 6 9 11 10 9 7 9 12 13 14 16 17 17 16 16 16 16 15 15 14 15 16 17 18 19 18 17 18 19 21 23 25 27 29 30 31 32 35 37 38 37 36 35 34 32 30 28 26 24 21 19 16 15 13 12 10 9 8 7 7 7 7 8 9 10 12 13 15 17 19 21 23 25 27 29 31 33
6 8 5 4 6 6 5 2 3 3 2 6 10 11 11 11 12 12 13 15 16 15 14 11 8 7 6 5 5 6 8 10 13 15 15 16 17 18 21 23 24 26 27 28 30 32 34 36 36 35 35 33 32 31 30 27 25 23 21 19 17 15 13 12 10 9 8 8 8 8 8 9 10 11 12 14 16 17 19 22 24 25 27 28 29 31
6 5 3 4 6 7 6 4 6 3 1 4 7 9 11 13 14 13 11 10 9 9 8 6 5 4 3 2 4 5 6 8 10 12 13 15 16 18 20 22 24 25 27 28 31 33 35 35 35 34 34 33 32 30 29 27 25 22 20 18 16 14 12 11 10 10 9 9 8 8 9 10 11 12 14 15 16 18 19 21 23 25 27 28 29 30
5 4 3 5 5 4 1 3 7 7 3 3 4 3 6 9 11 11 10 8 6 7 8 9 9 8 7 8 9 10 11 12 12 14 15 16 17 18 19 21 23 25 27 30 33 35 37 37 36 35 34 33 32 30 28 26 23 21 19 17 15 14 13 11 11 11 10 9 9 9 10 11 12 13 14 16 18 19 21 22 23 24 26 27 29 30
Wind_Direction
183 170 192 206 210 201 210 224 222 224 213 179 184 232 199 140 132 86 66 295 182 159 210 219 223 237 235 231 214 194 191 195 193 193 201 205 209 211 213 217 219 221 221 219 221 226 228 228 227 226 226 226 228 228 228 229 230 229 231 234 234 232 235 238 238 240 243 245 247 248 248 248 249 250 250 253 255 256 260 264 265 266 269 270 270 271
179 196 208 197 220 210 204 227 225 248 279 191 175 206 203 153 143 51 61 289 342 72 210 222 229 248 242 238 245 208 188 193 196 197 205 210 213 214 215 219 222 223 221 214 214 220 226 230 229 229 228 226 227 228 229 230 231 232 234 237 239 238 238 240 241 242 245 248 251 253 255 256 255 254 255 258 259 259 261 263 263 265 268 266 264 267
185 219 203 191 220 223 205 219 219 226 287 281 145 169 200 175 128 57 24 24 11 19 258 282 238 255 258 248 246 230 219 214 209 208 213 215 216 216 217 220 220 219 219 216 216 221 227 233 236 235 233 231 230 231 230 231 232 233 234 237 239 240 240 241 243 245 247 250 253 255 256 258 257 258 259 260 261 262 265 267 268 270 270 266 263 266
187 209 212 198 203 209 199 195 190 215 263 300 140 154 184 167 136 187 266 34 1 60 70 6 320 274 272 268 254 237 234 233 228 225 223 220 220 219 218 221 220 216 216 217 220 228 231 233 236 236 235 234 233 233 231 231 232 235 236 237 239 241 242 242 245 247 249 250 251 252 252 252 253 255 259 262 264 265 267 271 273 273 271 267 265 266
185 182 261 221 181 170 154 160 160 179 228 246 210 172 186 164 133 101 141 135 13 23 119 22 331 291 239 233 252 238 227 230 229 222 218 219 219 218 217 216 214 210 213 218 223 231 236 236 235 233 233 233 234 235 235 235 236 239 241 241 240 241 242 243 243 245 247 246 246 247 244 245 248 251 255 262 268 270 270 272 272 270 266 265 265 265
199 230 276 184 169 176 170 170 178 173 204 252 214 250 228 154 120 105 133 132 63 302 254 98 25 290 245 217 237 227 208 218 215 205 208 213 213 214 215 214 209 207 211 218 222 228 237 241 238 233 230 231 233 236 238 239 240 242 243 242 241 240 241 242 242 242 243 244 245 248 248 249 252 255 258 264 270 272 268 265 265 263 259 256 258 259
182 358 327 159 161 172 174 197 194 166 185 246 230 281 98 115 116 129 156 154 113 213 281 88 163 265 312 271 243 195 175 203 198 202 215 217 220 221 222 224 222 221 222 226 229 230 234 241 243 240 237 234 235 236 237 238 238 239 240 240 240 240 240 241 242 241 241 244 247 249 252 255 258 261 263 265 265 262 258 256 257 258 257 255 257 258
107 76 17 145 145 151 167 197 195 167 180 246 287 335 100 115 130 148 155 172 154 130 357 14 159 248 303 289 259 148 157 208 201 217 229 223 224 226 228 231 230 231 232 232 235 236 235 238 242 244 243 240 237 236 236 236 236 237 238 238 237 238 239 240 242 243 243 245 248 250 252 255 258 260 261 261 259 253 251 253 256 259 261 261 263 263
54 149 171 145 138 148 165 216 212 166 164 238 282 337 96 122 140 150 146 158 96 74 326 268 190 253 269 257 250 134 167 233 223 220 221 211 210 212 215 220 222 225 229 232 236 238 238 237 237 239 240 240 238 237 236 236 236 236 236 236 235 235 237 239 241 244 245 245 248 251 253 255 257 260 259 257 253 248 249 254 259 264 269 274 275 274
357 157 146 133 146 157 140 11 320 168 159 203 198 49 55 69 91 128 145 132 87 68 235 224 188 195 277 254 217 182 208 231 232 227 200 187 188 192 198 207 218 225 228 232 234 237 239 238 236 236 237 238 238 237 236 235 234 234 234 234 234 234 235 237 239 242 244 245 249 252 253 254 256 257 253 246 244 246 253 261 267 273 277 281 283 283
6 86 45 65 133 145 131 62 6 74 131 148 147 84 61 40 41 43 72 97 86 256 237 217 188 169 278 263 199 189 226 220 213 194 146 154 168 180 195 207 223 233 233 233 232 235 238 239 238 236 236 236 236 236 236 236 234 233 233 233 233 234 235 237 238 241 244 246 249 249 249 250 248 245 239 237 242 250 259 269 278 284 286 287 289 292
60 73 59 76 129 151 138 76 21 39 116 121 129 115 80 27 30 25 359 63 113 243 261 301 322 127 225 257 227 208 225 183 154 159 155 150 157 172 192 208 221 232 238 236 234 236 238 239 239 235 233 231 230 232 234 235 235 232 231 231 232 234 237 239 240 242 243 241 240 238 237 235 233 231 231 234 243 251 258 269 279 285 288 292 295 299
75 78 126 107 183 201 158 93 40 7 352 32 141 127 107 79 69 45 249 187 208 242 268 296 334 271 231 251 256 255 235 182 142 133 161 160 155 164 187 207 221 227 231 233 232 234 236 236 234 229 225 222 222 226 228 229 227 224 224 225 228 232 235 236 234 233 230 224 223 224 222 221 221 222 223 224 230 235 243 255 269 281 292 303 306 311
91 5 172 125 211 220 192 131 133 224 260 210 166 140 139 142 131 205 202 196 225 259 287 276 293 265 267 269 246 251 249 195 158 131 146 154 156 172 195 208 220 216 211 217 218 220 223 222 221 218 214 212 213 215 215 213 210 209 210 212 214 216 216 214 212 212 210 208 209 209 208 206 205 203 199 195 198 205 223 244 273 299 312 320 320 322
163 235 200 159 169 198 191 158 154 159 175 208 186 145 166 173 161 187 182 181 200 221 318 295 274 195 212 259 229 220 142 145 147 144 147 153 165 185 201 204 205 202 201 205 207 208 209 209 207 204 202 201 201 199 196 194 192 191 190 188 187 187 187 187 189 191 192 192 192 190 188 183 179 176 174 176 186 198 223 257 288 302 307 312 314 320
171 208 260 291 328 168 168 284 45 124 157 228 168 123 205 211 145 137 177 178 157 113 313 241 249 217 207 250 220 148 105 121 137 149 154 159 174 187 192 188 186 193 197 200 203 202 200 198 195 192 190 189 189 186 184 181 179 177 174 173 173 173 174 174 176 178 178 177 175 170 167 163 162 166 173 180 190 209 235 258 275 287 296 306 312 323
166 202 324 338 358 42 120 354 7 104 173 205 136 162 214 184 114 115 230 273 112 168 231 186 253 277 280 282 224 153 140 147 150 160 167 171 177 178 179 177 179 187 190 194 198 196 193 191 187 185 182 181 179 175 173 171 169 169 168 167 166 167 168 167 167 167 164 161 159 158 158 161 166 172 180 189 205 225 242 256 272 288 300 313 323 331
150 117 333 1 58 356 4 59 55 39 73 110 154 201 200 75 78 120 196 355 87 235 236 172 213 247 238 271 265 141 178 211 197 189 182 179 179 177 177 179 182 186 187 192 193 191 191 187 183 180 176 173 171 168 168 167 166 166 165 164 163 162 161 159 157 155 154 154 156 161 165 169 175 182 190 202 215 227 241 254 274 298 314 330 344 348
138 107 336 352 86 276 347 81 127 17 31 121 190 231 120 137 255 162 185 196 162 215 261 229 221 224 204 215 212 182 208 218 208 199 189 185 184 180 178 180 185 187 187 189 189 188 187 183 180 177 173 171 169 168 168 167 166 165 163 160 158 156 154 153 154 154 157 161 164 170 174 177 184 190 196 204 208 217 229 245 275 325 351 1 3 360
139 119 198 318 321 197 18 76 184 197 350 38 358 23 81 160 182 173 197 198 157 185 253 264 229 243 234 208 196 204 210 205 196 197 198 193 189 184 181 183 187 189 189 187 188 187 184 181 179 176 174 172 170 169 168 165 164 161 158 156 155 155 156 157 161 164 168 171 174 178 180 182 187 188 191 194 192 195 192 171 111 60 32 16 7 2
104 101 150 294 314 176 159 222 195 179 175 164 116 147 175 186 122 117 251 208 147 173 229 247 253 265 252 216 206 203 199 198 192 190 196 193 189 187 186 188 190 190 189 189 189 188 184 181 179 176 174 172 169 168 165 162 161 160 159 159 160 162 164 167 170 173 177 179 179 181 180 181 183 181 182 177 168 164 154 143 119 80 41 20 13 8
86 107 129 136 198 177 202 294 48 144 169 174 181 185 189 179 132 128 253 228 167 177 196 190 248 275 268 280 268 177 128 122 185 180 182 184 185 187 189 192 194 191 190 192 191 189 186 182 178 175 173 171 169 167 165 163 163 164 165 166 168 171 172 175 177 178 179 179 178 178 178 177 175 170 168 162 160 161 152 144 123 86 54 35 28 20
86 95 105 120 169 162 260 351 67 92 135 147 228 211 176 176 168 176 213 219 201 199 140 138 253 275 269 318 7 33 65 55 139 168 173 177 181 186 190 191 192 191 192 194 193 190 186 181 178 175 174 172 171 170 169 169 169 170 172 172 174 176 177 177 178 176 177 177 176 175 173 170 167 164 164 163 161 157 145 131 106 83 62 44 33 21
114 105 103 91 39 16 347 355 73 31 100 160 242 216 177 196 194 186 195 176 173 190 148 149 250 264 276 326 9 352 7 84 137 162 168 174 178 184 190 189 187 189 192 194 194 190 185 182 179 178 176 175 175 175 175 175 176 176 177 178 177 178 177 176 175 175 176 177 174 172 168 166 164 162 162 159 153 144 134 120 100 82 59 39 24 10
167 146 121 119 95 25 354 321 295 262 207 201 231 197 174 156 123 129 206 120 208 213 175 170 236 249 280 326 333 303 285 241 205 169 165 173 179 184 187 186 187 190 193 195 194 190 186 184 182 181 181 181 180 182 182 181 182 181 181 179 178 178 176 175 176 175 175 175 172 168 166 164 161 159 158 154 149 142 132 120 102 79 38 16 6 0
166 162 140 143 169 184 199 215 206 191 181 168 359 163 172 170 150 157 204 204 235 227 183 176 237 251 283 318 283 265 258 238 218 189 178 181 185 189 189 188 191 193 196 197 195 192 188 186 186 186 186 187 188 188 188 186 185 184 182 179 177 178 178 175 176 175 172 172 170 167 165 163 160 159 159 154 150 145 137 128 84 27 6 2 2 360
130 169 166 173 195 201 211 218 156 127 142 184 200 197 193 197 193 184 180 197 215 228 215 214 234 254 264 247 235 243 225 224 221 196 188 185 188 195 195 193 194 195 198 199 195 192 190 190 191 191 192 193 194 193 192 189 187 185 183 180 177 178 178 175 175 174 173 172 171 169 166 164 163 161 160 157 154 149 136 82 14 8 3 1 1 358
91 185 179 183 203 211 217 221 168 147 170 194 199 204 204 200 194 190 204 213 207 210 238 236 225 243 252 224 203 230 224 218 217 198 195 191 190 197 197 195 196 196 197 199 197 195 194 194 195 195 197 198 197 195 192 190 188 184 182 181 179 178 178 177 176 176 175 174 172 171 168 165 164 162 161 159 152 134 64 25 10 6 3 359 355 350
122 190 186 185 208 222 223 228 197 178 191 198 201 207 207 200 194 195 212 222 213 206 233 236 224 233 248 231 202 218 215 210 213 207 200 195 192 197 198 195 196 197 199 201 200 198 198 198 198 199 200 200 198 196 194 190 187 184 183 183 180 179 179 178 179 178 176 175 174 172 169 166 165 163 160 153 131 75 23 13 5 360 356 351 346 344
114 190 188 182 207 227 221 228 228 200 209 210 209 211 205 199 198 200 214 225 223 220 231 238 237 241 248 228 208 226 226 219 213 200 194 196 199 199 198 196 197 199 203 205 203 202 201 201 202 202 202 200 198 197 193 190 188 186 185 184 182 181 180 180 181 180 177 176 174 171 168 167 166 163 158 147 105 26 7 0 355 350 346 342 341 340
156 198 175 161 207 233 223 229 236 216 223 229 226 222 205 193 196 206 218 226 227 230 239 247 257 263 253 231 228 242 223 200 184 181 192 204 204 199 195 197 201 204 208 209 206 204 204 204 205 206 204 201 199 197 194 192 190 187 186 185 183 182 181 181 182 180 177 176 173 170 170 169 168 168 165 159 359 353 350 346 342 341 339 338 339 337
173 189 142 137 198 234 218 220 222 209 226 278 269 239 204 189 193 206 214 218 216 221 237 248 254 256 251 237 239 234 193 176 182 189 195 202 202 200 201 203 207 210 212 211 209 208 207 207 208 208 206 203 200 198 196 194 190 188 187 185 184 183 181 180 181 179 177 175 174 173 173 173 174 175 183 225 331 333 335 336 335 336 336 336 337 336
162 161 150 154 193 231 211 201 202 158 62 279 254 226 209 204 205 209 218 224 216 209 219 233 237 242 244 233 236 231 185 184 199 199 199 205 206 209 212 214 216 217 216 215 214 212 211 210 211 210 207 203 201 199 197 195 192 190 188 186 184 183 182 181 180 179 178 176 176 176 176 178 182 188 220 294 324 329 331 333 332 333 335 335 336 335
166 165 170 162 187 228 189 147 134 150 214 234 226 210 209 213 208 208 223 227 219 210 215 228 237 243 240 224 230 232 211 212 217 214 218 224 220 218 221 224 225 225 221 219 217 214 213 212 212 210 207 204 202 199 196 194 192 189 187 186 184 183 183 182 179 179 180 179 179 181 182 186 195 216 278 309 324 329 331 332 332 333 334 334 334 334
165 166 172 170 181 193 120 111 146 215 226 232 225 208 209 214 209 213 226 228 221 216 220 233 245 249 241 233 234 234 233 231 227 224 226 231 231 232 234 234 232 229 225 221 218 217 217 215 213 210 206 204 203 200 195 192 190 188 186 185 185 184 184 183 181 180 181 182 182 186 190 199 218 253 298 317 325 330 331 331 331 332 333 334 335 336
164 169 168 170 161 119 116 159 196 235 251 240 227 219 216 217 213 216 233 239 231 223 221 232 246 250 246 243 241 240 242 239 232 229 231 235 240 242 243 243 241 237 232 229 227 226 223 220 217 213 208 204 202 198 194 190 189 189 187 185 186 186 184 183 182 182 183 185 189 193 202 218 246 279 309 323 326 329 331 330 331 333 334 336 337 337
164 171 169 181 184 162 166 190 216 309 307 232 212 213 208 209 205 201 234 252 240 222 221 227 238 244 244 244 243 240 239 238 236 236 234 234 238 240 242 246 249 248 243 237 233 229 225 222 218 213 208 203 200 196 193 190 190 190 188 186 187 187 186 184 184 185 187 191 196 204 216 235 268 298 316 325 327 329 330 331 333 335 335 336 337 338
151 168 170 186 197 162 160 187 196 268 256 237 226 211 196 202 200 168 202 256 248 219 217 223 234 243 247 246 231 210 212 222 242 244 237 232 231 236 240 241 244 246 242 234 228 225 222 220 217 212 207 202 197 193 192 191 191 191 190 188 188 188 188 187 187 189 192 196 203 211 226 250 284 308 318 326 329 330 332 333 335 337 338 338 338 339
72 106 148 172 199 176 180 210 193 208 247 244 216 183 185 191 182 124 151 252 255 226 217 221 232 242 246 231 195 172 173 202 240 248 244 240 234 234 238 238 237 236 235 233 231 228 224 221 216 210 205 201 196 193 192 193 193 192 191 190 190 190 190 190 190 192 195 199 207 217 235 266 296 315 322 328 330 331 333 335 337 339 340 339 338 337
110 52 132 176 208 195 189 218 216 229 257 232 181 178 176 170 155 123 201 252 253 195 208 221 224 233 240 220 189 170 183 214 235 251 251 248 240 237 239 239 239 237 232 229 229 228 225 222 216 208 202 199 197 194 193 194 193 192 192 191 192 192 192 192 191 193 196 201 209 222 248 278 303 317 323 328 332 334 336 338 339 341 340 338 337 336
156 191 176 191 213 209 200 222 249 257 246 217 176 167 157 148 147 173 213 242 131 144 195 220 223 230 232 211 190 199 220 226 237 253 257 249 239 235 235 237 236 235 233 228 224 222 219 216 213 207 201 198 196 195 194 194 193 192 191 192 192 192 191 192 192 193 197 203 212 229 259 293 311 320 324 329 334 338 340 341 341 340 338 336 335 333
173 182 189 194 205 212 213 221 261 266 241 193 150 160 156 148 178 212 201 246 131 158 196 217 222 231 231 215 209 221 230 232 238 248 252 248 240 233 232 232 229 225 223 221 219 217 214 208 204 201 197 194 194 194 194 193 192 191 190 191 191 190 190 191 192 195 200 206 218 243 284 307 315 320 325 331 337 342 343 341 338 336 334 332 330 329
169 161 184 201 193 199 219 199 216 265 228 144 130 149 176 174 210 199 182 199 218 203 206 215 222 232 231 224 224 227 230 234 238 242 246 246 242 239 236 233 228 223 220 217 214 213 211 206 200 196 195 193 192 192 192 190 190 190 189 189 189 189 190 191 194 199 203 210 233 274 299 306 312 319 326 333 338 339 337 335 333 332 330 329 328 329
172 168 186 205 186 178 203 204 210 251 168 152 149 177 208 206 208 175 180 192 199 198 208 218 225 231 231 233 231 226 227 234 239 242 244 241 237 235 232 227 224 221 218 215 213 210 208 205 199 195 193 191 190 190 189 188 189 189 188 188 188 189 191 194 198 201 207 226 261 283 292 299 309 319 327 333 333 332 330 330 330 330 329 330 331 332
194 185 177 192 195 185 202 218 212 194 174 174 174 178 191 200 207 172 170 173 162 175 194 205 212 228 245 251 243 231 233 241 243 242 242 238 233 228 225 222 220 218 216 213 211 208 205 204 200 195 191 189 188 189 188 186 188 189 189 189 190 191 195 198 201 208 223 246 261 269 280 295 310 319 324 326 325 326 327 328 328 329 331 333 334 334
203 182 166 176 201 205 228 236 224 197 179 185 191 147 179 196 205 195 176 161 147 159 186 255 264 271 271 263 256 253 252 249 245 240 235 231 226 222 219 217 215 214 214 212 209 206 202 200 198 195 192 189 188 188 187 186 187 190 192 192 192 195 198 201 208 219 231 240 247 258 275 292 305 312 316 320 322 325 326 327 329 332 334 334 334 334
257 188 173 173 178 192 228 237 228 217 206 199 201 190 173 191 205 212 215 222 231 247 264 271 275 278 272 261 256 254 251 243 236 231 226 222 221 219 218 217 214 212 212 210 207 204 199 196 195 194 192 191 188 187 188 188 188 192 194 195 196 199 203 208 214 221 226 233 244 257 273 286 297 305 311 316 320 323 325 328 331 333 334 334 334 335
195 178 177 185 185 194 223 231 206 200 206 207 214 221 213 209 217 223 230 239 248 257 264 270 274 273 268 261 250 246 246 241 235 232 229 224 223 222 219 217 215 212 209 207 205 201 197 194 194 193 192 191 190 188 189 191 192 194 195 197 200 204 207 212 215 217 223 234 247 261 275 287 295 303 310 315 319 322 326 330 332 334 335 336 337 337
147 164 179 182 193 222 251 226 118 104 190 207 212 216 218 221 224 224 228 236 243 251 259 268 271 264 259 257 247 243 247 243 238 237 235 228 225 224 222 219 217 214 211 206 202 198 195 194 194 193 193 194 193 192 192 193 194 196 197 200 203 206 209 212 215 220 230 242 253 267 278 287 295 304 310 316 320 326 329 332 333 334 336 337 337 337
140 165 176 161 189 227 245 191 155 153 230 211 207 216 219 220 223 223 220 221 227 237 244 244 239 233 229 247 274 281 271 255 243 237 235 233 229 226 224 221 217 213 209 203 198 195 194 194 195 196 196 196 196 196 196 196 197 199 200 202 205 209 212 216 220 228 238 247 257 268 278 288 298 307 313 318 323 327 330 332 333 334 335 336 337 337
170 182 172 171 196 225 249 160 181 195 191 133 143 197 220 224 232 232 226 225 232 236 242 246 250 257 260 256 260 267 269 266 255 242 237 236 233 230 229 226 221 215 209 203 199 196 195 195 196 198 198 198 199 198 198 199 200 201 203 205 208 212 216 220 226 233 241 251 262 273 284 294 303 310 315 320 324 326 328 330 331 332 334 334 335 336